Regional Weather Roundup
Issued by NWS State College, PA

Home | Current Version | Previous Version | Text Only | Print | Product List | Glossary On
Versions: 1 2 3 4 5 6 7 8 9 10 11 12 13 14 15 16 17 18 19 20 21 22 23 24 25 26 27 28 29 30 31 32 33 34 35 36 37 38 39 40 41 42 43 44 45 46 47 48 49 50
000
ASUS41 KCTP 010803
RWRCTP

REGIONAL WEATHER ROUNDUP
NATIONAL WEATHER SERVICE STATE COLLEGE PA
400 AM EDT TUE SEP 01 2015

Note: "fair" indicates few or no clouds below 12,000 feet with no
significant weather and/or obstructions to visibility.

* = STATION THAT DOES NOT REPORT PRECIPITATION /E.G. RAIN...SNOW...ETC/
    THUNDER OR FOG.

PAZ002>004-007>009-013>016-020>023-029>032-010900-
WESTERN PENNSYLVANIA

CITY           SKY/WX    TMP DP  RH WIND       PRES   REMARKS
ERIE           CLEAR     66  62  87 S6        30.08S
MEADVILLE      CLEAR     65  63  93 S3        30.12S FOG
FRANKLIN*      MOCLDY    61  59  94 CALM      30.14S VSB 1
NEW CASTLE     FOG       64  64 100 CALM      30.12S VSB 1/4
BEAVER COUNTY  NOT AVBL
BUTLER*          N/A     64  64 100 CALM      30.13S VSB 1/2
PITTSBURGH INT CLEAR     69  65  86 CALM      30.10F
PITTSBURGH     CLEAR     70  63  78 CALM      30.10S
INDIANA*       CLOUDY    64  63  94 CALM      30.15S
LATROBE        NOT AVBL
WASHINGTON CO*   N/A     61  59  94 CALM      30.12S VSB 1/2
$$

PAZ004>006-010>012-017>019-024>028-033>037-041-042-045-046-049>053-010900-
CENTRAL PENNSYLVANIA

CITY           SKY/WX    TMP DP  RH WIND       PRES   REMARKS
BRADFORD       PTCLDY    54  53  97 CALM      30.13S
DUBOIS         CLEAR     66  63  90 CALM      30.12S FOG
CLEARFIELD     FOG       63  62  97 SW3       30.12R VSB 1/4
JOHNSTOWN      CLEAR     65  61  87 SW5       30.15F
ALTOONA        CLEAR     65  62  90 SW3       30.12S
STATE COLLEGE  PTCLDY    65  64  96 CALM      30.10R
WILLIAMSPORT   FOG       68  66  93 NW3       30.05S VSB 1
SELINSGROVE    CLEAR     65  63  93 CALM      30.06R FOG
FT INDIANTOWN  CLEAR     67  66  97 CALM      30.04R
CAPITAL CITY   CLEAR     73  65  75 NW3       30.04R
HARRISBURG     CLEAR     71  67  87 CALM      30.03S
YORK           CLEAR     63  62  97 CALM      30.05S FOG
$$

PAZ038>040-043-044-047-048-054-055-060>062-067>071-010900-
EASTERN PENNSYLVANIA

CITY           SKY/WX    TMP DP  RH WIND       PRES   REMARKS
SCRANTON       CLEAR     68  63  84 E3        30.06S
MOUNT POCONO   CLEAR     61  59  93 W3        30.10S FOG
ALLENTOWN      CLEAR     70  66  87 CALM      30.04R
QUAKERTOWN*    SUNNY     66  66 100 CALM      30.05S
READING        CLEAR     70  66  87 N3        30.03R
LANCASTER      CLEAR     68  66  93 CALM      30.04R FOG
COATESVILLE    SUNNY     70  68  94 W5        30.06R
POTTSTOWN      CLEAR     68  67  96 CALM      30.05R
BLUE BELL      CLEAR     68  66  94 CALM      30.03R
DOYLESTOWN     CLEAR     68  67  96 CALM      30.02F
WILLOW GROVE   NOT AVBL
NORTH PHILA    CLEAR     73  65  75 N5        30.04R
PHILADELPHIA   PTCLDY    74  69  85 SW7       30.03S
$$


USA.gov is the U.S. government's official web portal to all federal, state and local government web resources and services.